CZ-6A DEB, 60975

Orbit data source: Space-Track

CZ-6A DEB, 60975 is space debris in LEO originally from a launch on Tue, 06 Aug 2024 UTC launched from the Taiyaun Space Center, China (TSC). Debris objects in space refer to the collection of defunct objects orbiting the Earth. Examples of debris include non-operational satellites, rocket bodies, and fragments generated from explosions, collisions, or faulty payload assembly.

Loading next visibility...
Identifier
60975, 2024-140MA
Orbit
LEO
Country
Flag of CNCN / PRC
Related business
Manufacturer
SAST
Mission
Spacecraft
Bus & Motor
Unknown
Mass
Unknown
Launch date (UTC)
2024-08-06 (1 year ago)
Launch vehicle
Unknown
Launch site
Taiyaun Space Center, China (TSC)
Object type
Payload
Rocket body
Debris
Shape & HBR
Unknown shape, 0.1 m
Radar Cross Section
Small (<0.1 m²)

Expand to show TLE details & history
Last TLE update: 13 hours ago

TLE from 13 hours ago
0 CZ-6A DEB
1 60975U 24140MA  25350.30031465  .00001157  00000-0  22322-3 0  9993
2 60975  88.9672 289.8135 0130386 164.5433 195.9821 14.57380620 70459
Epoch: 2025-12-16T07:12Z
TLE epoch observation values (Epoch: 2025-12-16T07:12:27.185Z)
Latitude
-0.00003°
Longitude
96.51372°
Altitude
793.603 km
Speed
7.41 km/s
True Right ascension
19h 19m 15s
True Declination
0° 00' 00"
Sunlit
Object was in daylight at epoch
Visualization orbit readout
Latitude
Unknown
Longitude
Unknown
Altitude
Unknown
Speed
Unknown
Apparent Right ascension
Unknown
Apparent Declination
Unknown
Sunlit
N/A
Visualization observer readout
Local Sidereal Time
19:11:52
Azimuth
Unknown
Elevation
Unknown
Doppler factor
Unknown
Orbital elements
Apogee altitude
790.812 km
Perigee altitude
606.272 km
Semi-major axis
7,076.679 km
Eccentricity
0.01304
Inclination
88.9672°
RAAN
289.8135°
Arg. of periapsis
164.5433°
True anomaly
195.57707°
Mean anomaly
195.9821°
Eccentric anomaly
195.77896°
Mean motion
3.64585 °/min
Orbital period
98.74 mins
BSTAR
0.00022322
Loading maneuver chart data...
Computing Atmospheric mass density...
Loading historical data...
Loading historical data...
Loading historical data...
Loading historical data...
Loading historical data...
Loading historical data...
Loading historical data...

Documentation

Showing up to 5 results
|